EHI
0 0 0 1 0 0 0 0 0 0 0 0 0 0 0 0 0 0 0 1 2 2 2 1 2 3 3 3 3 2 1 1 2 3 3 2 2 1 1 1 1 0 0
0 0 1 1 1 0 0 0 0 0 0 0 0 0 0 0 0 0 0 0 1 1 1 0 1 2 2 2 2 1 0 0 1 2 2 1 1 0 1 1 1 0 0
1 0 1 1 1 0 0 0 0 0 0 0 0 0 0 0 0 0 0 0 0 0 0 0 0 1 1 1 1 0 0 0 0 1 1 0 0 0 1 2 1 0 0
5 3 1 1 0 0 0 0 0 0 0 0 0 0 0 0 1 1 0 0 0 0 0 0 0 0 0 0 0 0 0 0 0 0 0 0 0 0 0 1 1 0 0
9 6 3 2 1 0 0 0 0 0 0 0 0 0 0 0 1 2 1 1 0 0 0 0 0 0 0 0 0 0 0 1 1 1 0 0 0 0 0 0 0 1 1
8 6 4 4 2 0 0 0 0 0 0 0 0 0 0 0 1 2 2 1 0 0 0 0 0 0 0 0 0 0 1 3 4 2 1 1 0 0 0 0 0 0 0
7 5 3 3 2 1 0 0 0 0 0 0 0 0 0 0 0 1 1 1 0 0 0 0 0 0 0 0 0 0 1 4 4 3 4 2 1 0 0 0 0 0 0
8 5 2 2 2 1 0 1 0 0 0 0 0 0 0 0 0 0 0 0 0 0 0 0 0 0 0 0 0 0 3 5 5 4 5 3 1 1 1 0 0 0 0
6 4 3 3 2 1 0 0 0 0 0 0 0 0 0 0 0 0 0 0 0 0 0 0 0 0 0 0 0 1 4 8 7 4 3 2 2 2 1 0 0 0 0
3 3 4 5 4 3 2 1 1 1 1 1 0 0 0 0 0 0 0 0 0 0 0 0 0 0 0 0 1 2 6 9 6 4 3 2 3 3 1 0 0 0 0
4 4 5 7 6 4 3 3 2 2 2 2 1 1 1 1 0 0 1 1 1 0 0 0 0 0 0 1 2 5 8 7 4 3 3 3 4 4 2 0 0 0 0
6 4 5 7 6 3 3 3 2 3 5 4 3 3 3 2 1 1 3 3 2 1 0 0 0 1 1 1 4 7 7 5 2 1 2 3 5 5 3 1 0 0 1
7 5 4 6 7 5 4 2 2 4 6 6 5 5 4 2 1 2 3 3 2 1 1 1 1 2 2 2 4 6 5 2 0 1 2 3 4 4 4 2 1 1 2
8 6 5 8 11 11 6 3 2 4 5 6 7 7 5 2 1 1 1 1 1 1 3 4 3 2 2 2 2 3 2 0 0 2 5 6 6 5 4 4 3 3 3
9 8 9 12 15 14 10 7 5 3 4 6 7 7 5 3 1 0 0 0 0 1 3 4 2 1 1 0 1 1 0 0 2 3 7 11 12 9 7 7 6 4 3
13 13 14 17 17 15 12 11 8 4 4 6 7 7 5 3 2 1 1 1 0 1 3 3 2 1 0 0 1 1 2 3 5 6 7 11 14 13 11 9 8 5 4
19 20 20 19 18 16 12 11 9 5 3 5 9 10 8 5 3 3 2 1 0 1 3 4 3 2 0 1 2 4 5 7 9 9 8 10 12 14 14 13 11 9 7
28 28 24 20 22 19 15 13 11 7 5 7 11 15 14 8 5 3 2 1 0 1 3 4 4 1 0 1 2 4 6 10 12 11 11 13 15 17 19 19 17 14 12
36 34 29 25 25 23 19 17 13 10 9 10 14 18 17 12 7 5 4 3 2 1 2 4 4 2 1 1 1 3 5 10 13 12 12 14 18 23 24 24 24 20 15
43 40 36 32 29 27 23 19 16 13 13 15 17 19 18 14 11 9 9 10 8 5 4 5 5 5 4 3 2 2 4 7 11 13 12 11 14 20 24 27 28 22 16
53 52 46 40 37 34 29 24 20 16 16 19 22 23 20 15 14 13 13 15 15 11 8 8 8 7 7 7 5 3 3 5 8 13 14 11 9 12 19 26 30 28 23
65 62 55 51 48 43 37 31 24 18 16 20 27 30 25 18 15 15 16 16 16 15 13 13 12 11 9 9 7 6 4 4 5 7 11 12 10 11 16 21 28 32 33
69 65 62 63 59 51 45 38 29 22 19 20 29 35 30 23 19 18 18 16 14 14 15 17 16 14 11 9 8 8 7 5 2 3 6 9 13 16 16 15 19 28 33
69 67 69 72 67 58 51 44 36 29 23 23 30 36 33 27 24 22 20 17 16 16 15 17 19 16 12 9 8 10 9 6 3 3 3 6 12 18 18 14 13 20 25
70 71 75 77 72 63 56 49 42 33 25 24 29 33 33 30 28 25 24 23 23 21 19 20 23 21 17 13 11 10 9 7 5 4 4 5 8 13 17 16 13 15 18
71 73 77 77 72 65 57 51 44 33 25 24 27 30 30 31 30 28 30 31 28 25 24 25 26 25 23 19 13 9 7 7 6 5 4 4 5 8 13 16 15 13 15
Wind_Speed
13 13 13 13 14 14 13 13 14 14 14 14 15 15 15 16 16 17 17 17 17 17 17 17 17 17 17 17 17 17 17 17 17 18 18 17 15 13 13 14 15 13 15
15 14 13 13 13 13 14 13 14 14 15 15 15 15 15 15 16 16 16 16 16 16 16 16 16 16 16 16 16 15 15 15 15 17 17 15 14 13 12 13 14 11 15
16 14 14 13 13 13 13 13 13 14 14 14 14 14 14 15 15 15 15 15 16 16 16 16 15 15 15 15 14 13 13 12 13 14 14 11 11 13 14 16 16 15 14
16 14 14 13 13 13 12 12 13 13 14 14 14 14 14 14 14 14 15 15 15 15 15 15 15 14 14 13 12 11 10 10 9 9 6 8 10 13 14 15 15 14 13
16 15 14 14 13 13 12 12 12 13 13 14 14 14 13 14 14 14 14 14 14 14 14 14 14 13 13 11 10 8 7 6 6 5 7 9 8 12 14 14 13 13 13
17 16 14 13 13 12 12 12 12 12 13 13 14 13 13 13 13 14 14 14 13 13 14 13 13 12 11 9 7 5 4 2 2 4 8 10 8 11 13 13 12 12 12
17 16 14 13 13 12 12 11 11 11 12 13 13 13 13 13 13 13 13 13 13 13 13 12 12 11 9 7 4 2 0 1 1 7 9 9 9 11 12 12 12 11 11
17 16 14 13 13 12 11 11 11 11 12 12 12 12 12 12 12 12 12 12 12 12 12 11 10 9 7 5 3 1 3 4 3 10 10 10 10 11 12 11 11 11 10
16 16 13 12 11 12 11 11 11 11 11 11 11 11 11 11 11 11 11 11 11 10 10 10 9 8 6 4 1 2 4 5 1 6 11 8 11 12 12 11 10 10 9
12 14 13 13 12 10 10 10 10 10 10 10 9 9 10 10 10 10 10 9 9 9 8 8 7 6 4 3 1 3 5 5 1 8 7 9 12 12 11 10 10 9 8
10 9 10 12 11 10 11 11 10 10 9 8 8 8 7 6 8 7 9 8 8 7 7 6 6 5 4 4 4 4 5 2 3 6 6 12 12 12 11 9 9 8 8
9 8 8 9 7 6 8 8 6 7 7 5 5 6 4 2 4 7 9 8 7 6 6 6 6 5 5 3 5 5 3 2 4 6 7 13 12 11 10 9 9 8 8
8 7 9 9 5 5 5 4 3 3 4 4 4 3 3 3 4 5 4 5 5 6 4 5 6 5 4 3 2 3 2 1 3 6 8 12 11 11 10 9 9 8 8
7 7 9 8 6 4 3 3 3 3 3 3 3 2 2 1 1 2 2 3 3 3 2 2 2 2 1 1 1 1 1 1 4 5 8 12 11 11 10 10 9 9 9
7 7 8 8 6 4 3 1 2 3 4 4 3 2 2 2 1 1 1 0 1 1 2 1 1 1 0 1 1 1 1 2 4 6 6 12 12 11 10 10 9 9 9
7 8 8 7 6 4 2 1 1 2 3 3 3 3 1 2 2 1 1 1 1 0 1 1 1 0 1 1 1 0 1 1 3 5 6 8 11 10 10 10 9 9 9
8 7 7 7 7 5 3 1 1 1 3 3 3 3 2 2 2 1 1 1 1 1 1 0 1 1 1 1 1 1 0 1 2 3 5 5 6 9 10 9 9 9 9
8 7 5 5 7 5 2 1 0 1 2 2 3 3 3 2 2 1 1 1 0 1 1 1 1 1 1 1 1 1 1 1 2 3 3 5 5 6 9 11 10 9 9
8 7 5 3 6 6 4 2 1 1 1 1 2 2 2 2 2 1 1 0 1 1 1 2 1 1 1 1 2 2 1 2 2 4 4 4 5 5 6 9 11 10 11
8 7 6 4 4 4 4 2 1 1 1 1 1 2 2 2 2 1 1 2 1 1 1 1 0 1 2 2 3 1 1 2 2 3 4 4 4 5 6 7 7 8 10
8 7 6 5 4 3 2 2 2 2 2 2 2 2 2 1 1 1 1 1 1 1 1 1 1 2 2 2 1 1 2 2 3 2 3 2 3 3 3 5 6 5 5
9 8 6 5 5 4 3 2 2 1 2 2 1 2 2 2 1 1 1 1 1 1 2 2 1 2 2 2 1 1 1 1 1 2 1 1 2 2 2 3 4 4 4
10 9 7 6 6 5 4 2 2 1 1 1 1 2 2 1 1 1 0 1 2 1 1 2 2 3 2 2 2 2 1 1 1 1 1 1 1 1 1 1 2 2 3
10 9 7 7 6 5 4 3 4 3 2 2 1 1 2 1 1 0 0 1 2 1 1 2 2 2 2 2 2 2 2 1 1 1 1 1 1 1 1 0 1 2 2
10 10 8 7 6 5 4 4 3 2 1 0 1 2 1 1 0 0 0 1 1 1 2 2 2 2 1 2 2 1 1 1 2 2 1 1 1 1 1 1 2 2 3
9 9 9 7 6 5 5 4 3 2 1 1 0 0 1 1 1 0 1 1 1 1 2 2 2 2 1 1 1 1 1 1 1 2 2 2 1 1 1 2 2 2 3
Wind_Direction
96 94 87 84 81 80 82 79 78 77 77 78 79 81 81 83 85 87 87 88 89 89 88 89 88 88 89 91 94 95 98 100 102 104 104 103 103 104 108 113 110 101 105
102 98 91 86 84 81 80 81 79 77 78 79 79 81 82 84 86 87 89 90 90 90 90 90 90 91 94 96 98 99 103 106 110 111 110 103 99 98 98 99 99 106 108
108 106 97 88 88 86 84 84 82 81 81 81 81 83 84 86 88 88 90 91 91 91 91 92 93 94 95 96 99 102 107 112 118 124 122 110 101 96 96 97 103 107 108
108 104 98 95 92 90 88 87 86 85 84 84 84 85 86 89 91 91 91 92 91 92 93 96 97 97 97 98 101 107 114 121 130 139 125 110 105 101 101 103 106 107 109
101 101 102 100 97 93 92 90 88 87 87 87 87 87 88 90 92 91 92 95 94 96 97 97 98 100 99 101 105 111 117 126 140 133 101 96 96 107 106 108 109 110 110
113 108 106 104 100 96 93 93 92 90 91 91 90 89 91 91 93 94 93 95 94 94 96 97 98 101 102 105 110 114 120 150 172 120 107 105 107 113 113 113 113 112 113
113 113 113 110 105 101 98 97 96 96 96 95 93 93 94 94 94 95 95 94 94 93 94 97 99 101 104 107 107 104 76 280 182 108 105 104 112 117 116 116 117 115 116
117 115 117 115 112 108 105 101 98 99 99 100 99 98 99 99 99 99 98 97 96 96 96 98 101 104 107 108 99 6 324 314 94 111 108 109 120 120 119 119 121 122 121
119 125 132 130 122 116 112 109 106 104 103 105 106 108 109 108 107 104 101 101 101 101 103 105 106 111 118 120 115 314 324 332 13 120 116 118 127 126 127 127 127 127 126
115 125 135 133 134 137 128 124 119 117 118 117 117 121 124 124 122 120 114 108 109 111 113 116 120 123 134 157 236 297 317 316 164 107 111 128 136 135 135 135 135 134 133
106 117 126 127 142 144 137 137 141 136 136 139 139 145 153 153 139 134 110 122 122 125 131 137 145 155 173 201 234 266 290 266 96 99 109 135 141 141 142 144 144 145 144
121 121 112 114 122 130 127 142 156 151 155 175 152 165 183 146 120 120 132 144 147 153 161 175 182 192 209 204 217 235 255 204 115 107 122 142 145 148 152 156 157 157 156
124 121 115 110 112 107 114 145 138 131 144 147 132 134 124 126 135 137 154 160 173 185 196 181 200 214 212 201 197 204 223 120 109 116 137 150 152 156 161 166 169 170 169
118 111 111 108 94 73 79 106 125 132 138 131 138 146 120 124 110 124 157 171 179 188 189 189 209 205 217 207 211 203 164 117 113 119 146 157 162 166 170 176 179 180 180
122 113 101 102 99 88 48 20 110 108 117 120 131 114 129 131 110 100 90 161 194 161 167 171 227 140 94 280 256 173 87 86 121 128 144 164 167 172 178 183 185 189 193
131 122 118 121 115 115 113 17 53 101 110 124 130 131 137 111 103 106 151 281 275 90 100 127 216 198 221 261 294 267 139 118 110 129 146 165 172 176 181 186 191 195 200
133 125 128 141 135 141 145 197 155 132 131 127 128 133 146 126 142 163 176 221 215 198 141 194 276 272 238 230 247 274 204 146 143 146 155 163 175 186 188 189 193 198 204
138 136 152 155 140 142 145 196 354 108 111 118 131 141 153 149 169 197 224 224 220 238 193 196 237 279 303 291 268 255 215 152 167 175 178 175 175 182 194 198 198 201 206
136 140 148 138 135 148 161 169 174 87 67 112 132 139 147 166 181 200 215 171 256 283 275 256 144 216 271 277 247 225 219 200 192 204 195 197 186 178 177 190 198 201 208
142 145 149 150 138 151 156 158 181 194 169 173 146 143 143 175 201 234 207 196 224 237 255 272 238 234 245 256 267 268 244 234 210 212 208 208 195 191 182 176 187 205 210
150 151 158 164 157 165 165 177 184 194 203 194 180 156 158 182 200 237 303 179 232 233 241 254 251 251 237 221 244 283 268 245 220 216 212 199 197 189 169 162 172 185 195
157 159 165 172 169 178 172 176 192 209 215 184 149 150 161 179 213 221 199 263 253 248 256 263 253 266 260 221 205 228 262 287 276 229 184 188 209 176 161 176 174 175 174
167 170 176 175 170 177 174 177 204 202 250 238 163 158 169 179 194 295 5 286 297 280 271 266 258 253 260 262 222 215 228 220 331 329 205 177 169 146 152 139 140 160 172
168 169 166 165 166 170 183 194 198 208 216 200 187 147 146 168 207 206 267 286 297 295 283 267 253 257 248 261 261 239 231 211 190 303 335 13 102 111 82 35 81 103 114
169 165 162 158 163 173 190 198 210 240 242 211 125 131 142 156 179 270 224 307 317 303 301 301 317 303 274 255 263 267 256 244 205 201 245 305 358 43 73 79 71 72 90
164 160 158 155 164 173 185 190 197 233 270 301 319 156 177 159 132 16 79 27 347 319 308 303 304 286 275 281 281 284 271 242 220 199 212 233 267 322 42 63 84 89 89